GW5240 Weather Reports


time (UTC)temp
C
wind
direction
speed
KPH
gust
KPH
rain 1hr
cm
rain 24hr
cm
rain mn
cm
humidity
%
barometer
mb
20260831230805 31 167 0.0 0.0 0.00 0.00 0.00 43 1011.7
20260831230300 31 173 0.0 3.2 0.00 0.00 0.00 43 1011.8
20260831225759 31 342 4.8 8.0 0.00 0.00 0.00 43 1012.0
20260831225255 31 169 0.0 0.0 0.00 0.00 0.00 43 1011.8
20260831224750 31 171 0.0 0.0 0.00 0.00 0.00 43 1011.8
20260831224245 31 168 1.6 4.8 0.00 0.00 0.00 42 1011.9
20260831223740 31 161 3.2 3.2 0.00 0.00 0.00 43 1011.8
20260831223236 31 143 0.0 3.2 0.00 0.00 0.00 43 1012.0
20260831222732 31 265 3.2 4.8 0.00 0.00 0.00 44 1011.7
20260831222228 32 157 3.2 4.8 0.00 0.00 0.00 44 1011.7
20260831221723 32 168 0.0 3.2 0.00 0.00 0.00 45 1011.4
20260831221218 32 158 0.0 3.2 0.00 0.00 0.00 43 1011.4
20260831220713 32 174 0.0 0.0 0.00 0.00 0.00 40 1011.5
20260831220208 32 187 0.0 3.2 0.00 0.00 0.00 38 1011.4
20260831215703 33 177 0.0 0.0 0.00 0.00 0.00 39 1011.5
20260831215159 33 254 0.0 0.0 0.00 0.00 0.00 38 1011.3
20260831214656 33 136 3.2 3.2 0.00 0.00 0.00 35 1011.3
20260831214153 33 159 3.2 4.8 0.00 0.00 0.00 36 1011.3
20260831213648 34 297 4.8 8.0 0.00 0.00 0.00 36 1011.4
20260831213143 33 170 0.0 0.0 0.00 0.00 0.00 42 1011.3
20260831212640 34 8 3.2 4.8 0.00 0.00 0.00 39 1011.3
20260831212137 34 316 3.2 4.8 0.00 0.00 0.00 36 1011.5
20260831211635 34 194 3.2 4.8 0.00 0.00 0.00 37 1011.3
20260831211130 34 151 0.0 0.0 0.00 0.00 0.00 35 1011.2
20260831210625 34 175 3.2 3.2 0.00 0.00 0.00 37 1011.4
20260831210121 34 181 1.6 3.2 0.00 0.00 0.00 38 1011.2
20260831205620 34 80 3.2 4.8 0.00 0.00 0.00 37 1011.0
20260831205117 34 15 3.2 4.8 0.00 0.00 0.00 35 1011.3
20260831204616 34 175 3.2 3.2 0.00 0.00 0.00 38 1011.2
20260831204114 34 176 0.0 0.0 0.00 0.00 0.00 40 1011.2
20260831203614 35 177 0.0 3.2 0.00 0.00 0.00 37 1011.4
20260831203114 35 259 0.0 3.2 0.00 0.00 0.00 38 1011.1
20260831202613 34 191 0.0 3.2 0.00 0.00 0.00 40 1011.3
20260831202113 33 223 3.2 3.2 0.00 0.00 0.00 37 1011.3
20260831201612 33 83 3.2 4.8 0.00 0.00 0.00 39 1011.3
20260831201107 33 10 9.7 14.5 0.00 0.00 0.00 39 1011.4
20260831200604 33 178 3.2 3.2 0.00 0.00 0.00 41 1011.2
20260831200058 33 183 0.0 3.2 0.00 0.00 0.00 41 1011.2
20260831195554 34 68 6.4 11.3 0.00 0.00 0.00 40 1011.2
20260831195049 33 190 1.6 3.2 0.00 0.00 0.00 39 1011.3
20260831194543 33 167 1.6 3.2 0.00 0.00 0.00 41 1011.1
20260831194038 33 251 1.6 3.2 0.00 0.00 0.00 43 1011.0
20260831193533 33 181 0.0 0.0 0.00 0.00 0.00 43 1011.4
20260831193028 33 311 6.4 8.0 0.00 0.00 0.00 45 1011.0
20260831192523 33 175 1.6 3.2 0.00 0.00 0.00 45 1011.1
20260831192018 33 159 6.4 11.3 0.00 0.00 0.00 44 1011.1
20260831191514 33 178 0.0 0.0 0.00 0.00 0.00 47 1011.2
20260831191010 33 201 3.2 3.2 0.00 0.00 0.00 46 1011.3
20260831190506 34 317 3.2 4.8 0.00 0.00 0.00 43 1011.2
20260831190004 33 174 0.0 3.2 0.00 0.00 0.00 43 1011.0
20260831185500 33 259 0.0 3.2 0.00 0.00 0.00 44 1010.9
20260831185000 33 179 3.2 3.2 0.00 0.00 0.00 44 1011.0
20260831184454 32 184 1.6 3.2 0.00 0.00 0.00 44 1010.9
20260831183950 32 165 1.6 3.2 0.00 0.00 0.00 46 1011.1
20260831183449 32 204 4.8 4.8 0.00 0.00 0.00 48 1011.0
20260831182949 32 41 4.8 4.8 0.00 0.00 0.00 47 1011.1
20260831182444 32 143 0.0 0.0 0.00 0.00 0.00 50 1011.3
20260831181940 33 185 0.0 0.0 0.00 0.00 0.00 53 1011.0
20260831181435 32 168 1.6 3.2 0.00 0.00 0.00 54 1011.0
20260831180929 32 174 1.6 3.2 0.00 0.00 0.00 51 1011.1
20260831180424 32 171 0.0 0.0 0.00 0.00 0.00 56 1011.1
20260831175923 32 191 3.2 4.8 0.00 0.00 0.00 55 1011.2
20260831175420 32 174 4.8 4.8 0.00 0.00 0.00 55 1011.1
20260831174915 31 229 3.2 3.2 0.00 0.00 0.00 56 1011.2
20260831174410 31 227 3.2 8.0 0.00 0.00 0.00 60 1011.2
20260831173909 31 275 1.6 4.8 0.00 0.00 0.00 62 1011.3
20260831173409 31 31 4.8 4.8 0.00 0.00 0.00 59 1011.4
20260831172905 31 179 3.2 3.2 0.00 0.00 0.00 64 1011.2
20260831172400 30 106 3.2 4.8 0.00 0.00 0.00 67 1011.4
20260831171900 30 192 1.6 3.2 0.00 0.00 0.00 67 1011.3
20260831171356 30 186 4.8 8.0 0.00 0.00 0.00 69 1011.5
20260831170853 30 116 3.2 4.8 0.00 0.00 0.00 69 1011.4
20260831170348 30 157 3.2 3.2 0.00 0.00 0.00 69 1011.4
20260831165845 30 182 3.2 3.2 0.00 0.00 0.00 69 1011.5
20260831165341 30 174 4.8 8.0 0.00 0.00 0.00 68 1011.5
20260831164837 30 282 3.2 4.8 0.00 0.00 0.00 68 1011.4
20260831164333 30 137 1.6 3.2 0.00 0.00 0.00 70 1011.4
20260831163828 30 48 6.4 11.3 0.00 0.00 0.00 69 1011.3
20260831163324 30 106 3.2 3.2 0.00 0.00 0.00 69 1011.2
20260831162822 29 166 1.6 3.2 0.00 0.00 0.00 71 1011.0
20260831162318 29 155 0.0 0.0 0.00 0.00 0.00 71 1010.9
20260831161816 29 149 0.0 3.2 0.00 0.00 0.00 71 1011.0
20260831161313 29 342 6.4 11.3 0.00 0.00 0.00 71 1011.1
20260831160813 28 71 3.2 4.8 0.00 0.00 0.00 71 1011.0
20260831160308 28 147 3.2 4.8 0.00 0.00 0.00 72 1010.9
20260831155808 28 23 1.6 3.2 0.00 0.00 0.00 72 1011.0
20260831155306 28 229 1.6 4.8 0.00 0.00 0.00 73 1011.2
20260831154759 29 209 1.6 3.2 0.00 0.00 0.00 72 1011.2
20260831154255 29 161 0.0 0.0 0.00 0.00 0.00 74 1011.0
20260831153753 29 163 3.2 3.2 0.00 0.00 0.00 72 1011.0
20260831153249 29 188 3.2 3.2 0.00 0.00 0.00 72 1010.9
20260831152745 29 238 0.0 3.2 0.00 0.00 0.00 74 1010.9
20260831152241 28 172 0.0 0.0 0.00 0.00 0.00 76 1010.8
20260831151741 28 149 0.0 0.0 0.00 0.00 0.00 76 1010.9
20260831151241 28 90 4.8 8.0 0.00 0.00 0.00 77 1010.9
20260831150736 27 181 3.2 3.2 0.00 0.00 0.00 77 1010.8
20260831150231 27 172 1.6 3.2 0.00 0.00 0.00 79 1010.5
20260831145730 27 289 3.2 4.8 0.00 0.00 0.00 79 1010.4
20260831145227 27 168 0.0 0.0 0.00 0.00 0.00 80 1010.2
20260831144722 27 212 4.8 4.8 0.00 0.00 0.00 79 1010.0
20260831144218 26 169 0.0 3.2 0.00 0.00 0.00 82 1010.1
20260831143717 26 165 0.0 0.0 0.00 0.00 0.00 84 1010.1
20260831143213 26 156 1.6 3.2 0.00 0.00 0.00 83 1010.0
20260831142709 26 338 3.2 4.8 0.00 0.00 0.00 84 1010.1
20260831142204 26 205 0.0 3.2 0.00 0.00 0.00 84 1010.1
20260831141703 25 174 0.0 3.2 0.00 0.00 0.00 85 1009.9
20260831141158 25 324 4.8 8.0 0.00 0.00 0.00 85 1010.0
20260831140658 25 6 3.2 3.2 0.00 0.00 0.00 87 1009.8
20260831140153 25 205 3.2 4.8 0.00 0.00 0.00 88 1009.7
20260831135650 24 173 1.6 3.2 0.00 0.00 0.00 90 1009.8
20260831135147 23 148 0.0 0.0 0.00 0.00 0.00 92 1009.8
20260831134642 23 190 0.0 0.0 0.00 0.00 0.00 94 1009.7
20260831134137 23 145 1.6 3.2 0.00 0.00 0.00 95 1009.8
20260831133636 23 172 0.0 0.0 0.00 0.00 0.00 96 1009.6
20260831133132 22 172 0.0 0.0 0.00 0.00 0.00 97 1009.5
20260831132628 22 200 1.6 3.2 0.00 0.00 0.00 97 1009.6
20260831132126 22 228 1.6 3.2 0.00 0.00 0.00 97 1009.6
20260831131621 22 167 0.0 0.0 0.00 0.00 0.00 98 1009.4
20260831131118 22 172 0.0 3.2 0.00 0.00 0.00 98 1009.4
20260831130613 22 171 0.0 0.0 0.00 0.00 0.00 98 1009.3
20260831130109 22 166 0.0 0.0 0.00 0.00 0.00 98 1009.2
20260831125607 22 167 0.0 0.0 0.00 0.00 0.00 98 1009.3
20260831125102 22 172 0.0 0.0 0.00 0.00 0.00 98 1009.3
20260831124558 22 177 0.0 0.0 0.00 0.00 0.00 98 1009.3
20260831124054 21 180 0.0 0.0 0.00 0.00 0.00 98 1008.8
20260831123553 21 179 0.0 0.0 0.00 0.00 0.00 98 1008.9
20260831123048 21 161 0.0 0.0 0.00 0.00 0.00 98 1009.2
20260831122543 21 165 0.0 0.0 0.00 0.00 0.00 98 1008.8
20260831122038 21 163 0.0 0.0 0.00 0.00 0.00 98 1009.0
20260831121532 21 167 0.0 0.0 0.00 0.00 0.00 98 1008.9
20260831121029 21 167 0.0 0.0 0.00 0.00 0.00 97 1008.9
20260831120527 20 164 0.0 0.0 0.00 0.00 0.00 97 1008.8
20260831120023 20 165 0.0 0.0 0.00 0.00 0.00 97 1008.8
20260831115519 20 165 0.0 0.0 0.00 0.00 0.00 97 1008.8
20260831115014 20 165 0.0 0.0 0.00 0.00 0.00 97 1008.6
20260831114513 20 160 0.0 0.0 0.00 0.00 0.00 97 1008.4
20260831114008 20 158 0.0 0.0 0.00 0.00 0.00 97 1008.5
20260831113508 20 161 0.0 0.0 0.00 0.00 0.00 97 1008.4
20260831113004 20 164 0.0 0.0 0.00 0.00 0.00 97 1008.6
20260831112503 20 164 0.0 0.0 0.00 0.00 0.00 97 1008.2
20260831111958 20 164 0.0 0.0 0.00 0.00 0.00 97 1008.1
20260831111454 20 164 0.0 0.0 0.00 0.00 0.00 97 1008.2
20260831110949 20 164 0.0 0.0 0.00 0.00 0.00 97 1008.1
20260831110444 20 164 0.0 0.0 0.00 0.00 0.00 97 1008.1
20260831105943 20 162 0.0 0.0 0.00 0.00 0.00 97 1008.0
20260831105439 20 162 0.0 0.0 0.00 0.00 0.00 97 1007.8
20260831104939 20 160 0.0 0.0 0.00 0.00 0.00 97 1007.7
20260831104435 20 160 0.0 0.0 0.00 0.00 0.00 97 1007.7
20260831103931 20 160 0.0 0.0 0.00 0.00 0.00 97 1008.1
20260831103426 20 164 0.0 0.0 0.00 0.00 0.00 97 1007.8
20260831102922 20 160 0.0 0.0 0.00 0.00 0.00 97 1008.0
20260831102421 20 160 0.0 0.0 0.00 0.00 0.00 96 1008.0
20260831101917 20 160 0.0 0.0 0.00 0.00 0.00 97 1008.0
20260831101412 20 160 0.0 0.0 0.00 0.00 0.00 97 1007.8
20260831100908 20 160 0.0 0.0 0.00 0.00 0.00 96 1007.9
20260831100404 20 160 0.0 0.0 0.00 0.00 0.00 96 1007.8
20260831095904 20 160 0.0 0.0 0.00 0.00 0.00 96 1007.7
20260831095403 20 166 0.0 0.0 0.00 0.00 0.00 96 1007.9
20260831094858 20 166 0.0 0.0 0.00 0.00 0.00 96 1007.6
20260831094348 20 165 0.0 0.0 0.00 0.00 0.00 96 1007.8
20260831093844 20 166 0.0 0.0 0.00 0.00 0.00 96 1007.9
20260831093339 20 165 0.0 0.0 0.00 0.00 0.00 96 1007.7
20260831092836 20 166 0.0 0.0 0.00 0.00 0.00 96 1007.9
20260831092331 20 166 0.0 0.0 0.00 0.00 0.00 96 1007.7
20260831091826 20 166 0.0 0.0 0.00 0.00 0.00 96 1007.8
20260831091321 20 165 0.0 0.0 0.00 0.00 0.00 95 1007.8
20260831090816 20 165 0.0 0.0 0.00 0.00 0.00 95 1007.9
20260831090312 21 166 0.0 0.0 0.00 0.00 0.00 95 1007.9
20260831085809 21 166 0.0 0.0 0.00 0.00 0.00 95 1007.9
20260831085306 21 166 0.0 0.0 0.00 0.00 0.00 95 1007.8
20260831084803 21 166 0.0 0.0 0.00 0.00 0.00 95 1007.7
20260831084259 21 166 0.0 0.0 0.00 0.00 0.00 95 1007.9
20260831083755 21 166 0.0 0.0 0.00 0.00 0.00 95 1007.8
20260831083251 21 166 0.0 0.0 0.00 0.00 0.00 95 1007.7
20260831082749 21 160 0.0 0.0 0.00 0.00 0.00 95 1007.7
20260831082244 21 160 0.0 0.0 0.00 0.00 0.00 94 1007.8
20260831081740 21 158 0.0 0.0 0.00 0.00 0.00 94 1007.7
20260831081236 21 167 0.0 0.0 0.00 0.00 0.00 94 1007.7
20260831080732 21 166 0.0 0.0 0.00 0.00 0.00 94 1007.6
20260831080231 21 167 0.0 0.0 0.00 0.00 0.00 94 1007.6
20260831075727 21 168 0.0 0.0 0.00 0.00 0.00 94 1007.6
20260831075223 21 167 0.0 0.0 0.00 0.00 0.00 93 1007.6
20260831074722 21 167 0.0 0.0 0.00 0.00 0.00 93 1007.7
20260831074222 21 163 0.0 0.0 0.00 0.00 0.00 93 1007.7
20260831073718 21 164 0.0 0.0 0.00 0.00 0.00 93 1007.7
20260831073217 21 164 0.0 0.0 0.00 0.00 0.00 93 1007.5
20260831072712 21 164 0.0 0.0 0.00 0.00 0.00 92 1007.7
20260831072208 22 166 0.0 0.0 0.00 0.00 0.00 92 1007.6
20260831071708 22 166 0.0 0.0 0.00 0.00 0.00 92 1007.8
20260831071203 22 165 0.0 0.0 0.00 0.00 0.00 92 1007.8
20260831070702 22 166 0.0 0.0 0.00 0.00 0.00 91 1007.8
20260831070157 22 167 0.0 0.0 0.00 0.00 0.00 91 1008.0
20260831065656 22 162 0.0 0.0 0.00 0.00 0.00 91 1007.9
20260831065155 22 150 0.0 0.0 0.00 0.00 0.00 91 1007.9
20260831064650 22 168 0.0 0.0 0.00 0.00 0.00 91 1008.2
20260831064145 22 162 0.0 3.2 0.00 0.00 0.00 91 1008.0
20260831063641 22 158 0.0 0.0 0.00 0.00 0.00 91 1008.2
20260831063136 22 156 1.6 3.2 0.00 0.00 0.00 91 1008.3
20260831062636 22 159 0.0 0.0 0.00 0.00 0.00 91 1008.3
20260831062136 22 158 0.0 0.0 0.00 0.00 0.00 90 1008.5
20260831061634 22 165 0.0 0.0 0.00 0.00 0.00 90 1008.4
20260831061130 22 170 0.0 0.0 0.00 0.00 0.00 90 1008.2
20260831060626 22 165 0.0 0.0 0.00 0.00 0.00 90 1008.4
20260831060121 22 165 0.0 0.0 0.00 0.00 0.00 90 1008.6
20260831055620 22 164 0.0 0.0 0.00 0.00 0.00 89 1008.5
20260831055116 22 165 0.0 0.0 0.00 0.00 0.00 89 1008.4
20260831054615 22 174 0.0 0.0 0.00 0.00 0.00 89 1008.5
20260831054115 22 166 0.0 0.0 0.00 0.00 0.00 89 1008.6
20260831053614 22 159 0.0 0.0 0.00 0.00 0.00 89 1008.7
20260831053114 22 162 0.0 0.0 0.00 0.00 0.00 90 1008.7
20260831052613 22 172 0.0 0.0 0.00 0.00 0.00 89 1008.8
20260831052112 22 174 0.0 3.2 0.00 0.00 0.00 89 1008.9
20260831051610 22 170 0.0 0.0 0.00 0.00 0.00 89 1009.0
20260831051110 22 171 0.0 0.0 0.00 0.00 0.00 89 1009.0
20260831050609 22 172 0.0 0.0 0.00 0.00 0.00 88 1009.4
20260831050108 22 160 0.0 0.0 0.00 0.00 0.00 88 1009.3
20260831045608 22 172 0.0 0.0 0.00 0.00 0.00 88 1009.3
20260831045103 23 164 0.0 0.0 0.00 0.00 0.00 87 1009.3
20260831044558 23 169 0.0 0.0 0.00 0.00 0.00 87 1009.4
20260831044054 23 171 0.0 0.0 0.00 0.00 0.00 86 1009.4
20260831043549 23 173 0.0 0.0 0.00 0.00 0.00 86 1009.3
20260831043044 23 163 0.0 0.0 0.00 0.00 0.00 86 1009.4
20260831042543 23 157 0.0 0.0 0.00 0.00 0.00 85 1009.3
20260831042039 23 153 0.0 0.0 0.00 0.00 0.00 85 1009.3
20260831041534 23 157 0.0 0.0 0.00 0.00 0.00 85 1009.4
20260831041033 23 170 0.0 3.2 0.00 0.00 0.00 85 1009.3
20260831040528 23 167 0.0 0.0 0.00 0.00 0.00 85 1009.3
20260831040027 23 199 1.6 3.2 0.00 0.00 0.00 85 1009.3
20260831035525 23 172 0.0 0.0 0.00 0.00 0.00 84 1009.3
20260831035020 23 157 0.0 0.0 0.00 0.00 0.00 84 1009.0
20260831034515 23 181 1.6 3.2 0.00 0.00 0.00 84 1009.0
20260831034010 23 168 1.6 3.2 0.00 0.00 0.00 83 1009.2
20260831033506 24 164 0.0 3.2 0.00 0.00 0.00 82 1009.2
20260831033001 24 149 3.2 4.8 0.00 0.00 0.00 82 1009.5
20260831032500 24 160 1.6 3.2 0.00 0.00 0.00 82 1009.3
20260831031956 24 192 4.8 4.8 0.00 0.00 0.00 82 1009.4
20260831031455 24 188 0.0 3.2 0.00 0.00 0.00 82 1009.3
20260831030955 24 180 0.0 3.2 0.00 0.00 0.00 81 1009.3
20260831030454 24 169 1.6 3.2 0.00 0.00 0.00 81 1009.0
20260831025953 24 120 4.8 4.8 0.00 0.00 0.00 80 1008.9
20260831025452 24 159 3.2 4.8 0.00 0.00 0.00 80 1008.8
20260831024948 25 169 0.0 3.2 0.00 0.00 0.00 80 1008.8
20260831024443 25 176 0.0 3.2 0.00 0.00 0.00 79 1009.0
20260831023942 25 97 8.0 8.0 0.00 0.00 0.00 79 1009.0
20260831023440 25 172 1.6 3.2 0.00 0.00 0.00 78 1009.2
20260831022936 25 150 6.4 8.0 0.00 0.00 0.00 78 1009.0
20260831022434 25 169 4.8 8.0 0.00 0.00 0.00 78 1008.9
20260831021930 25 161 0.0 0.0 0.00 0.00 0.00 77 1009.2
20260831021429 25 175 1.6 3.2 0.00 0.00 0.00 76 1009.0
20260831020925 25 184 3.2 4.8 0.00 0.00 0.00 76 1009.4
20260831020425 25 155 3.2 4.8 0.00 0.00 0.00 75 1009.4
20260831015920 25 184 3.2 3.2 0.00 0.00 0.00 75 1009.2
20260831015416 26 198 3.2 4.8 0.00 0.00 0.00 75 1009.0
20260831014911 26 172 0.0 3.2 0.00 0.00 0.00 74 1009.4
20260831014410 26 190 3.2 3.2 0.00 0.00 0.00 74 1009.3
20260831013907 26 151 6.4 11.3 0.00 0.00 0.00 73 1009.5
20260831013402 26 198 3.2 4.8 0.00 0.00 0.00 72 1009.3
20260831012856 26 175 1.6 3.2 0.00 0.00 0.00 71 1009.0
20260831012351 26 169 1.6 4.8 0.00 0.00 0.00 70 1009.2
20260831011851 26 180 0.0 3.2 0.00 0.00 0.00 69 1008.9
20260831011346 27 164 1.6 3.2 0.00 0.00 0.00 68 1008.8
20260831010842 27 209 3.2 4.8 0.00 0.00 0.00 67 1008.7
20260831010341 27 172 0.0 0.0 0.00 0.00 0.00 67 1008.8
20260831005838 27 105 6.4 11.3 0.00 0.00 0.00 66 1008.6
20260831005333 27 63 4.8 8.0 0.00 0.00 0.00 65 1008.4
20260831004827 28 91 3.2 3.2 0.00 0.00 0.00 65 1008.3
20260831004324 28 164 3.2 4.8 0.00 0.00 0.00 65 1008.5
20260831003820 28 183 3.2 3.2 0.00 0.00 0.00 67 1008.2
20260831003316 28 188 3.2 4.8 0.00 0.00 0.00 68 1008.4
20260831002815 28 161 0.0 3.2 0.00 0.00 0.00 69 1008.2
20260831002314 28 169 0.0 0.0 0.00 0.00 0.00 68 1008.0
20260831001810 28 174 3.2 3.2 0.00 0.00 0.00 68 1007.9
20260831001305 28 175 1.6 3.2 0.00 0.00 0.00 68 1007.7
20260831000803 28 169 0.0 0.0 0.00 0.00 0.00 67 1008.0
20260831000303 28 120 1.6 3.2 0.00 0.00 0.00 67 1008.1
20260830235801 29 188 3.2 4.8 0.00 0.00 0.00 66 1008.1
20260830235255 29 157 1.6 3.2 0.00 0.00 0.00 66 1008.0
20260830234751 29 160 3.2 4.8 0.00 0.00 0.00 66 1007.9
20260830234247 29 212 4.8 4.8 0.00 0.00 0.00 67 1008.0
20260830233742 29 169 3.2 3.2 0.00 0.00 0.00 67 1008.1
20260830233238 30 167 0.0 3.2 0.00 0.00 0.00 67 1008.0
20260830232733 30 190 3.2 4.8 0.00 0.00 0.00 66 1007.9
20260830232229 30 172 1.6 3.2 0.00 0.00 0.00 66 1007.9
20260830231725 30 172 3.2 3.2 0.00 0.00 0.00 67 1007.8
20260830231224 29 175 0.0 0.0 0.00 0.00 0.00 69 1008.0